sat.trackr.live / text

‹ back to catalog

STARLINK-32025

NORAD 60138 · 2024-120D

PAYLOAD ACTIVE UNKNOWN

§ Identity

Operator
Country
US
Launch date
2024-06-27
Launch site
AFETR
Launch vehicle
Mass (kg)
RCS (m²)

Purposes: comms

External: N2YO · Heavens-Above · Gunter

§ Orbital elements

Epoch: 2026-09-21T20:45:32.353920Z

Period
93.85 min
Inclination
53.1588°
Eccentricity
0.0001378
Mean motion
15.34383940 rev/d
Perigee alt
461.8 km
Apogee alt
463.7 km
Semi-major
6,840.9 km
B*
-2.7764e-6
RAAN
125.0097°
Arg perigee
91.0601°
Mean anomaly
269.0559°
Rev number
12,646

§ Raw data

STARLINK-320251 60138U 24120D   26264.86495780 -.00000470  00000+0 -27764-5 0  99972 60138  53.1588 125.0097 0001378  91.0601 269.0559 15.34383940126465

JSON: /api/v1/satellites/60138 · /tle

For live sub-satellite position, see the globe view (requires WebGL).

§ Visibility from observer

Set your observer location to see the next 7 days of passes ≥ 10°. The values pass through the URL so the page stays shareable.

No JS? Fill the form by hand. The geolocation button needs JavaScript.